Precipitable_Water
0.45 0.46 0.46 0.51 0.54 0.53 0.52 0.53 0.55 0.58 0.62 0.64 0.64 0.67 0.69 0.67 0.66 0.63 0.60 0.56 0.53 0.51 0.52 0.50 0.51 0.52 0.54 0.57 0.61 0.62 0.65 0.66 0.70 0.77 0.82 0.88 0.98 1.05 1.04 1.08 1.10 1.12 1.18 1.16 1.08 0.97 0.94 0.90 0.98 1.15 1.22 1.27 1.29 1.29 1.32 1.33 1.30 1.27 1.27 1.28 1.26 1.26 1.27
0.48 0.52 0.48 0.51 0.52 0.54 0.52 0.52 0.54 0.54 0.57 0.58 0.57 0.60 0.60 0.54 0.49 0.47 0.46 0.45 0.44 0.42 0.41 0.41 0.43 0.46 0.49 0.50 0.53 0.54 0.54 0.55 0.57 0.62 0.66 0.70 0.73 0.78 0.81 0.82 0.83 0.92 1.02 0.94 0.94 0.99 0.93 0.88 0.92 0.92 1.01 1.20 1.22 1.24 1.32 1.35 1.35 1.35 1.32 1.32 1.33 1.31 1.32
0.43 0.45 0.47 0.49 0.53 0.52 0.52 0.50 0.51 0.54 0.52 0.52 0.54 0.55 0.51 0.50 0.49 0.48 0.46 0.44 0.42 0.41 0.40 0.40 0.40 0.41 0.43 0.45 0.47 0.48 0.49 0.48 0.50 0.50 0.49 0.48 0.49 0.53 0.55 0.56 0.58 0.60 0.65 0.76 0.83 0.81 0.84 0.88 0.80 0.85 0.91 0.92 0.94 1.09 1.17 1.11 1.12 1.24 1.31 1.35 1.36 1.33 1.33
0.40 0.43 0.43 0.47 0.52 0.49 0.52 0.50 0.52 0.54 0.55 0.51 0.51 0.51 0.49 0.49 0.49 0.48 0.46 0.45 0.44 0.43 0.42 0.42 0.42 0.41 0.42 0.42 0.43 0.45 0.45 0.45 0.45 0.44 0.43 0.44 0.45 0.44 0.44 0.45 0.44 0.47 0.47 0.46 0.50 0.52 0.51 0.50 0.52 0.55 0.67 0.74 0.73 0.73 0.87 1.07 1.17 1.13 1.08 1.09 1.15 1.21 1.31
0.44 0.43 0.43 0.46 0.48 0.46 0.51 0.50 0.54 0.53 0.55 0.53 0.52 0.50 0.48 0.48 0.49 0.48 0.47 0.46 0.45 0.44 0.43 0.44 0.44 0.43 0.43 0.44 0.45 0.45 0.44 0.44 0.44 0.43 0.42 0.41 0.43 0.43 0.42 0.43 0.41 0.42 0.44 0.42 0.45 0.44 0.42 0.43 0.43 0.43 0.44 0.54 0.62 0.66 0.72 0.82 0.98 1.02 0.98 0.95 1.06 1.16 1.19
0.47 0.46 0.46 0.49 0.53 0.49 0.52 0.52 0.51 0.52 0.55 0.53 0.53 0.52 0.50 0.49 0.50 0.50 0.49 0.46 0.44 0.43 0.43 0.42 0.42 0.43 0.44 0.44 0.44 0.43 0.45 0.44 0.44 0.44 0.41 0.39 0.39 0.41 0.41 0.43 0.43 0.44 0.44 0.45 0.46 0.46 0.48 0.48 0.48 0.45 0.50 0.54 0.53 0.56 0.60 0.65 0.67 0.77 0.87 0.93 0.97 1.01 1.09
0.49 0.48 0.50 0.52 0.58 0.56 0.58 0.56 0.52 0.53 0.55 0.55 0.55 0.55 0.52 0.51 0.54 0.54 0.51 0.48 0.46 0.45 0.44 0.44 0.44 0.44 0.45 0.44 0.44 0.44 0.43 0.43 0.43 0.42 0.41 0.40 0.39 0.38 0.39 0.39 0.40 0.41 0.43 0.45 0.45 0.46 0.46 0.45 0.45 0.46 0.45 0.45 0.48 0.47 0.51 0.53 0.61 0.61 0.72 0.85 0.92 0.94 0.94
0.55 0.49 0.50 0.53 0.57 0.58 0.60 0.60 0.56 0.57 0.58 0.60 0.61 0.62 0.57 0.54 0.56 0.56 0.54 0.52 0.50 0.48 0.46 0.45 0.44 0.43 0.43 0.43 0.44 0.44 0.44 0.45 0.44 0.43 0.42 0.40 0.38 0.37 0.35 0.36 0.36 0.38 0.38 0.41 0.43 0.42 0.43 0.44 0.43 0.44 0.42 0.36 0.37 0.43 0.44 0.51 0.55 0.59 0.62 0.67 0.69 0.71 0.81
0.63 0.57 0.52 0.54 0.58 0.61 0.62 0.61 0.58 0.57 0.58 0.61 0.62 0.67 0.61 0.61 0.58 0.57 0.56 0.56 0.53 0.52 0.49 0.48 0.47 0.46 0.45 0.45 0.45 0.45 0.43 0.45 0.44 0.44 0.45 0.43 0.39 0.37 0.36 0.34 0.36 0.35 0.35 0.36 0.37 0.39 0.39 0.42 0.40 0.42 0.42 0.40 0.34 0.30 0.37 0.38 0.44 0.52 0.66 0.63 0.69 0.70 0.72
0.72 0.67 0.61 0.58 0.57 0.59 0.61 0.61 0.62 0.61 0.59 0.61 0.63 0.67 0.63 0.65 0.63 0.62 0.60 0.58 0.55 0.53 0.51 0.49 0.47 0.46 0.45 0.45 0.44 0.43 0.43 0.45 0.46 0.43 0.43 0.43 0.42 0.42 0.39 0.35 0.36 0.37 0.39 0.36 0.36 0.38 0.41 0.40 0.41 0.41 0.41 0.37 0.37 0.32 0.29 0.30 0.34 0.39 0.50 0.66 0.60 0.66 0.69
0.78 0.75 0.70 0.65 0.59 0.57 0.58 0.62 0.63 0.66 0.63 0.65 0.67 0.65 0.68 0.67 0.66 0.65 0.65 0.62 0.59 0.56 0.53 0.51 0.49 0.48 0.48 0.46 0.45 0.45 0.44 0.44 0.44 0.43 0.42 0.42 0.39 0.40 0.36 0.37 0.35 0.39 0.39 0.38 0.38 0.37 0.38 0.40 0.39 0.41 0.40 0.41 0.41 0.34 0.33 0.29 0.30 0.37 0.37 0.46 0.57 0.63 0.78
0.81 0.80 0.77 0.75 0.71 0.63 0.59 0.60 0.63 0.65 0.67 0.67 0.67 0.67 0.69 0.70 0.70 0.68 0.68 0.66 0.64 0.60 0.58 0.54 0.52 0.51 0.50 0.47 0.46 0.45 0.45 0.45 0.43 0.42 0.40 0.39 0.38 0.38 0.35 0.36 0.34 0.37 0.36 0.38 0.39 0.40 0.40 0.39 0.40 0.39 0.40 0.39 0.39 0.39 0.36 0.35 0.29 0.37 0.46 0.41 0.45 0.58 0.60
0.82 0.81 0.80 0.80 0.76 0.71 0.64 0.61 0.63 0.66 0.69 0.69 0.67 0.68 0.69 0.72 0.73 0.72 0.71 0.70 0.67 0.65 0.62 0.60 0.58 0.56 0.53 0.51 0.49 0.47 0.44 0.44 0.43 0.42 0.42 0.41 0.38 0.39 0.37 0.36 0.35 0.33 0.34 0.35 0.40 0.39 0.37 0.38 0.36 0.36 0.38 0.39 0.38 0.38 0.37 0.34 0.31 0.31 0.40 0.41 0.44 0.46 0.47
0.84 0.83 0.81 0.80 0.78 0.76 0.73 0.68 0.65 0.68 0.73 0.72 0.70 0.69 0.70 0.72 0.75 0.76 0.74 0.73 0.71 0.68 0.66 0.64 0.63 0.61 0.59 0.56 0.53 0.49 0.47 0.45 0.44 0.43 0.42 0.43 0.42 0.39 0.36 0.35 0.36 0.36 0.37 0.35 0.37 0.37 0.39 0.37 0.39 0.39 0.38 0.37 0.36 0.38 0.37 0.34 0.31 0.32 0.39 0.46 0.45 0.44 0.47
0.89 0.86 0.84 0.82 0.79 0.78 0.77 0.73 0.71 0.69 0.71 0.75 0.75 0.73 0.70 0.73 0.75 0.76 0.77 0.76 0.74 0.72 0.70 0.68 0.66 0.66 0.63 0.59 0.56 0.55 0.51 0.47 0.45 0.44 0.44 0.41 0.42 0.41 0.40 0.37 0.35 0.35 0.34 0.32 0.35 0.36 0.38 0.37 0.36 0.37 0.38 0.38 0.34 0.34 0.38 0.33 0.32 0.31 0.30 0.38 0.39 0.44 0.43
0.86 0.88 0.85 0.84 0.82 0.80 0.80 0.81 0.80 0.73 0.70 0.74 0.78 0.78 0.75 0.76 0.76 0.76 0.78 0.78 0.77 0.74 0.71 0.70 0.68 0.68 0.67 0.65 0.61 0.59 0.57 0.54 0.50 0.47 0.45 0.44 0.42 0.42 0.41 0.38 0.37 0.36 0.36 0.34 0.34 0.37 0.36 0.38 0.37 0.35 0.36 0.36 0.36 0.37 0.36 0.34 0.30 0.27 0.28 0.30 0.35 0.34 0.38
0.95 0.94 0.91 0.86 0.81 0.83 0.84 0.85 0.85 0.83 0.78 0.78 0.79 0.81 0.80 0.81 0.78 0.77 0.79 0.79 0.78 0.75 0.74 0.73 0.71 0.70 0.68 0.68 0.66 0.64 0.62 0.60 0.56 0.52 0.48 0.46 0.44 0.43 0.41 0.39 0.39 0.37 0.35 0.33 0.34 0.32 0.34 0.36 0.34 0.34 0.34 0.37 0.40 0.39 0.39 0.37 0.36 0.32 0.30 0.28 0.31 0.32 0.34
0.92 0.95 0.98 1.00 0.95 0.92 0.89 0.88 0.89 0.85 0.84 0.84 0.83 0.84 0.84 0.85 0.80 0.79 0.78 0.76 0.75 0.73 0.73 0.73 0.72 0.71 0.69 0.69 0.68 0.68 0.67 0.64 0.61 0.58 0.54 0.51 0.46 0.45 0.42 0.41 0.39 0.38 0.37 0.35 0.34 0.34 0.34 0.33 0.31 0.31 0.30 0.31 0.31 0.35 0.38 0.39 0.37 0.36 0.32 0.30 0.31 0.34 0.35
0.94 0.96 0.99 0.99 0.96 0.94 0.93 0.92 0.88 0.85 0.84 0.85 0.87 0.87 0.87 0.87 0.84 0.80 0.78 0.75 0.72 0.72 0.73 0.73 0.73 0.71 0.69 0.69 0.69 0.68 0.68 0.67 0.66 0.61 0.58 0.53 0.49 0.46 0.44 0.42 0.40 0.39 0.37 0.35 0.33 0.33 0.34 0.34 0.33 0.32 0.31 0.31 0.30 0.31 0.32 0.32 0.32 0.32 0.32 0.31 0.32 0.31 0.34
0.98 1.03 1.05 1.04 1.01 0.96 0.93 0.94 0.92 0.89 0.88 0.89 0.90 0.88 0.88 0.88 0.89 0.86 0.82 0.76 0.72 0.71 0.71 0.72 0.72 0.71 0.70 0.69 0.70 0.69 0.68 0.66 0.65 0.63 0.59 0.55 0.52 0.49 0.45 0.44 0.42 0.40 0.38 0.37 0.34 0.33 0.34 0.34 0.33 0.33 0.34 0.34 0.34 0.32 0.30 0.29 0.29 0.28 0.28 0.28 0.29 0.30 0.30
0.88 0.94 1.00 1.03 1.04 1.02 0.99 0.95 0.94 0.92 0.91 0.89 0.88 0.88 0.88 0.89 0.91 0.92 0.86 0.78 0.75 0.72 0.70 0.69 0.71 0.70 0.69 0.71 0.71 0.70 0.68 0.65 0.61 0.60 0.58 0.55 0.54 0.53 0.50 0.46 0.43 0.41 0.39 0.37 0.36 0.33 0.30 0.29 0.29 0.29 0.31 0.33 0.33 0.32 0.31 0.30 0.30 0.30 0.28 0.28 0.27 0.27 0.28
0.78 0.82 0.84 0.85 0.86 0.89 0.93 0.96 0.95 0.93 0.91 0.90 0.89 0.89 0.89 0.91 0.87 0.83 0.82 0.81 0.80 0.76 0.72 0.68 0.70 0.71 0.68 0.70 0.71 0.69 0.65 0.62 0.60 0.58 0.57 0.56 0.55 0.53 0.52 0.52 0.47 0.44 0.41 0.31 0.28 0.26 0.25 0.24 0.24 0.23 0.25 0.28 0.29 0.31 0.32 0.32 0.30 0.29 0.29 0.29 0.28 0.29 0.29
0.71 0.72 0.73 0.72 0.73 0.77 0.79 0.81 0.83 0.85 0.88 0.88 0.89 0.91 0.89 0.90 0.86 0.86 0.85 0.86 0.86 0.82 0.77 0.71 0.70 0.70 0.70 0.69 0.69 0.66 0.64 0.62 0.59 0.57 0.56 0.55 0.55 0.53 0.52 0.51 0.52 0.45 0.39 0.35 0.32 0.30 0.28 0.26 0.26 0.26 0.26 0.27 0.27 0.28 0.29 0.29 0.29 0.29 0.28 0.27 0.27 0.27 0.26
0.65 0.66 0.68 0.70 0.71 0.71 0.75 0.76 0.75 0.75 0.78 0.80 0.85 0.86 0.85 0.85 0.87 0.90 0.87 0.87 0.85 0.82 0.80 0.75 0.70 0.68 0.67 0.68 0.68 0.66 0.62 0.59 0.57 0.54 0.52 0.52 0.53 0.52 0.52 0.53 0.52 0.51 0.47 0.44 0.41 0.38 0.34 0.31 0.30 0.28 0.27 0.26 0.26 0.25 0.25 0.25 0.26 0.28 0.27 0.27 0.28 0.28 0.28
0.63 0.68 0.70 0.68 0.69 0.71 0.72 0.73 0.73 0.73 0.72 0.72 0.76 0.79 0.83 0.82 0.82 0.82 0.84 0.84 0.84 0.88 0.87 0.80 0.71 0.67 0.67 0.69 0.69 0.66 0.60 0.56 0.52 0.51 0.51 0.50 0.51 0.50 0.49 0.51 0.53 0.51 0.48 0.46 0.42 0.35 0.36 0.37 0.36 0.34 0.33 0.31 0.29 0.28 0.28 0.27 0.26 0.26 0.27 0.27 0.28 0.29 0.29
0.49 0.53 0.60 0.63 0.65 0.67 0.66 0.67 0.68 0.69 0.70 0.70 0.71 0.73 0.76 0.81 0.82 0.82 0.82 0.81 0.84 0.80 0.80 0.82 0.76 0.75 0.73 0.70 0.64 0.61 0.57 0.54 0.51 0.50 0.50 0.50 0.50 0.50 0.48 0.49 0.51 0.51 0.49 0.47 0.45 0.42 0.39 0.37 0.37 0.37 0.37 0.36 0.34 0.32 0.31 0.30 0.29 0.28 0.29 0.28 0.28 0.28 0.29
0.43 0.45 0.49 0.55 0.57 0.58 0.58 0.60 0.62 0.64 0.65 0.69 0.70 0.70 0.74 0.78 0.83 0.83 0.81 0.79 0.80 0.83 0.80 0.77 0.70 0.71 0.69 0.62 0.56 0.55 0.55 0.53 0.51 0.51 0.51 0.50 0.50 0.51 0.51 0.49 0.49 0.48 0.47 0.47 0.46 0.43 0.41 0.38 0.36 0.36 0.37 0.38 0.39 0.39 0.38 0.36 0.35 0.34 0.33 0.31 0.29 0.27 0.29
0.39 0.40 0.41 0.44 0.46 0.47 0.49 0.51 0.54 0.57 0.58 0.60 0.66 0.69 0.72 0.75 0.78 0.80 0.80 0.81 0.79 0.76 0.71 0.68 0.72 0.70 0.61 0.55 0.53 0.52 0.53 0.52 0.50 0.49 0.48 0.48 0.48 0.47 0.48 0.49 0.49 0.48 0.47 0.46 0.46 0.43 0.39 0.37 0.37 0.37 0.37 0.37 0.38 0.39 0.39 0.40 0.41 0.42 0.42 0.40 0.38 0.36 0.35
0.37 0.37 0.38 0.40 0.41 0.40 0.43 0.45 0.46 0.51 0.54 0.55 0.59 0.67 0.71 0.73 0.74 0.77 0.81 0.82 0.81 0.78 0.76 0.74 0.68 0.60 0.56 0.53 0.51 0.50 0.51 0.51 0.48 0.44 0.43 0.44 0.45 0.46 0.46 0.47 0.47 0.46 0.47 0.46 0.45 0.42 0.40 0.38 0.37 0.37 0.37 0.38 0.38 0.40 0.40 0.42 0.42 0.42 0.41 0.41 0.42 0.42 0.42
0.36 0.36 0.37 0.37 0.39 0.41 0.41 0.43 0.45 0.50 0.50 0.51 0.53 0.58 0.63 0.69 0.73 0.74 0.73 0.74 0.73 0.72 0.69 0.67 0.66 0.62 0.55 0.52 0.49 0.49 0.49 0.47 0.45 0.44 0.43 0.44 0.44 0.44 0.44 0.45 0.46 0.46 0.46 0.44 0.43 0.40 0.39 0.38 0.37 0.36 0.37 0.37 0.39 0.39 0.39 0.41 0.42 0.41 0.40 0.39 0.39 0.38 0.39
0.34 0.34 0.36 0.37 0.40 0.43 0.44 0.45 0.46 0.49 0.48 0.48 0.50 0.54 0.59 0.63 0.67 0.69 0.71 0.71 0.72 0.72 0.71 0.66 0.61 0.56 0.55 0.54 0.53 0.51 0.48 0.45 0.44 0.44 0.44 0.43 0.42 0.42 0.43 0.43 0.42 0.42 0.42 0.42 0.42 0.40 0.39 0.38 0.36 0.36 0.36 0.35 0.36 0.37 0.38 0.40 0.40 0.41 0.41 0.41 0.40 0.40 0.39
0.35 0.34 0.34 0.36 0.39 0.41 0.42 0.44 0.48 0.52 0.51 0.51 0.53 0.57 0.59 0.61 0.64 0.66 0.69 0.71 0.70 0.66 0.63 0.58 0.56 0.56 0.56 0.55 0.52 0.49 0.46 0.44 0.43 0.42 0.40 0.39 0.39 0.39 0.40 0.41 0.41 0.41 0.40 0.40 0.40 0.39 0.39 0.39 0.38 0.38 0.37 0.36 0.34 0.34 0.36 0.38 0.38 0.38 0.39 0.39 0.40 0.41 0.41
0.37 0.37 0.36 0.37 0.40 0.43 0.45 0.46 0.47 0.50 0.52 0.53 0.56 0.59 0.58 0.60 0.62 0.66 0.71 0.72 0.69 0.66 0.62 0.59 0.58 0.57 0.55 0.51 0.48 0.46 0.44 0.41 0.38 0.37 0.37 0.37 0.36 0.37 0.38 0.38 0.39 0.39 0.40 0.40 0.40 0.40 0.40 0.40 0.39 0.39 0.39 0.36 0.35 0.34 0.38 0.38 0.39 0.39 0.38 0.38 0.38 0.39 0.39
0.39 0.40 0.42 0.42 0.43 0.45 0.47 0.48 0.49 0.51 0.54 0.55 0.55 0.56 0.56 0.59 0.61 0.63 0.62 0.62 0.61 0.63 0.63 0.61 0.55 0.53 0.51 0.47 0.45 0.41 0.40 0.38 0.37 0.37 0.38 0.37 0.35 0.34 0.33 0.34 0.36 0.39 0.40 0.41 0.41 0.41 0.41 0.41 0.40 0.40 0.39 0.37 0.37 0.38 0.40 0.38 0.37 0.37 0.37 0.37 0.37 0.37 0.38
0.42 0.43 0.44 0.45 0.44 0.45 0.50 0.55 0.55 0.54 0.56 0.57 0.56 0.56 0.58 0.61 0.63 0.62 0.60 0.58 0.58 0.59 0.58 0.57 0.56 0.51 0.48 0.45 0.43 0.41 0.39 0.40 0.40 0.37 0.34 0.32 0.31 0.31 0.32 0.34 0.36 0.39 0.39 0.40 0.40 0.40 0.40 0.40 0.40 0.39 0.38 0.38 0.38 0.38 0.37 0.37 0.37 0.37 0.36 0.36 0.36 0.36 0.36
0.42 0.44 0.44 0.45 0.45 0.46 0.52 0.55 0.54 0.56 0.58 0.59 0.57 0.56 0.60 0.63 0.62 0.58 0.58 0.61 0.62 0.61 0.59 0.52 0.48 0.48 0.43 0.41 0.40 0.39 0.37 0.37 0.36 0.34 0.33 0.31 0.32 0.33 0.35 0.36 0.37 0.38 0.38 0.39 0.38 0.37 0.37 0.36 0.37 0.37 0.37 0.37 0.37 0.37 0.38 0.37 0.36 0.36 0.35 0.35 0.35 0.35 0.36
0.44 0.45 0.45 0.46 0.47 0.49 0.53 0.55 0.53 0.55 0.57 0.56 0.55 0.56 0.60 0.59 0.54 0.54 0.57 0.58 0.57 0.56 0.54 0.53 0.47 0.43 0.41 0.40 0.40 0.38 0.37 0.35 0.34 0.34 0.34 0.33 0.34 0.36 0.36 0.37 0.37 0.36 0.36 0.35 0.36 0.37 0.37 0.37 0.37 0.37 0.38 0.37 0.37 0.37 0.37 0.36 0.36 0.36 0.35 0.35 0.35 0.35 0.36
Wind_Speed
10 10 10 10 10 9 9 9 9 9 9 8 8 8 8 8 8 9 9 9 10 10 10 11 12 12 12 12 12 12 13 13 13 13 13 13 14 14 15 15 15 15 14 14 14 14 14 14 16 18 20 21 20 20 21 22 23 23 24 24 25 25 25
10 10 10 10 10 10 9 9 9 9 8 8 8 8 8 8 8 8 8 8 8 9 9 10 10 10 10 10 11 11 11 11 12 12 12 13 13 13 14 14 14 14 14 14 14 14 14 14 15 15 17 19 20 20 21 22 23 24 25 25 25 26 26
10 10 10 10 10 10 9 9 8 8 8 8 8 8 8 8 8 8 8 8 8 8 8 8 9 9 9 9 9 9 10 10 11 11 11 12 13 13 14 14 14 14 14 14 13 14 14 15 16 16 15 17 18 20 22 23 23 24 25 26 26 26 26
10 10 10 10 10 9 9 8 8 8 7 7 7 7 7 8 8 8 8 8 8 8 8 8 8 8 8 8 8 8 8 9 9 10 10 11 12 13 13 14 14 14 14 15 14 15 15 15 16 16 16 17 18 19 20 21 22 23 24 25 25 25 25
10 10 10 10 10 9 9 8 8 8 7 7 7 7 7 7 7 7 7 7 7 7 8 8 8 8 8 8 8 8 8 8 8 9 9 10 11 11 12 13 13 14 14 14 15 15 15 16 16 16 16 17 17 18 19 19 20 21 22 23 24 24 24
11 11 10 10 9 9 9 9 8 8 8 8 7 7 7 7 7 7 7 7 7 7 7 7 7 7 8 8 8 8 8 8 8 9 9 9 10 11 11 12 12 13 13 14 14 14 15 15 16 16 16 17 17 17 17 18 19 20 21 22 23 23 23
12 11 11 10 10 10 9 9 9 8 8 8 8 7 7 7 7 7 7 7 7 7 7 7 7 7 7 7 8 8 8 8 9 9 9 10 10 11 11 12 12 13 13 14 14 14 15 15 16 16 17 17 18 17 17 17 18 19 20 20 21 22 22
12 12 12 11 11 10 10 10 9 9 9 8 8 8 7 7 7 6 6 7 7 7 7 7 7 7 7 7 7 8 8 8 9 9 9 10 10 11 11 12 12 13 13 14 14 14 15 15 15 16 17 17 17 17 17 17 17 18 18 19 20 21 21
14 13 12 12 12 11 11 11 10 10 9 9 9 8 8 8 7 7 7 7 7 7 7 7 8 8 8 8 8 8 8 8 9 9 9 9 10 10 11 11 12 12 13 13 14 14 14 15 15 15 15 16 16 16 16 16 17 17 17 17 18 19 19
15 15 14 14 13 13 12 12 11 11 10 10 10 10 9 9 8 8 8 7 7 7 8 8 8 8 8 8 9 9 9 9 9 9 10 10 10 10 11 11 12 12 12 13 14 14 14 14 15 15 15 15 15 15 15 16 16 17 17 18 18 18 18
17 17 16 16 15 14 14 13 13 12 12 11 11 11 11 10 10 9 9 9 8 8 8 8 8 9 9 9 9 10 10 10 10 10 10 11 11 11 11 12 12 12 13 13 14 14 14 15 15 15 15 15 15 15 16 16 16 17 17 18 18 19 18
18 18 17 17 16 16 16 15 15 14 14 13 13 12 12 12 11 11 11 10 10 10 9 9 9 9 10 10 10 11 11 11 11 11 11 12 12 12 12 13 13 13 14 14 14 15 15 15 15 16 16 16 16 17 17 17 17 17 17 18 19 19 20
20 19 19 19 18 18 18 17 17 16 16 16 15 15 14 14 13 13 12 12 12 11 11 11 10 10 10 11 11 11 12 12 12 12 13 13 13 14 14 14 15 15 15 16 16 16 16 16 16 17 17 17 17 18 18 18 19 19 19 19 20 21 21
22 22 21 21 21 20 20 19 19 19 18 18 17 17 16 16 15 14 14 14 13 13 13 12 12 12 12 12 12 13 13 13 13 13 14 14 14 15 15 16 16 16 17 17 17 17 18 18 18 18 18 18 18 18 19 19 20 21 21 20 21 21 21
25 24 23 23 23 22 22 22 21 21 21 20 20 20 19 18 18 17 16 16 16 15 15 14 14 14 14 14 14 14 15 15 15 15 15 16 16 16 17 17 17 18 18 18 19 19 19 19 19 20 20 20 20 20 20 20 21 21 21 21 21 22 22
26 26 26 26 25 25 24 24 23 23 23 22 22 22 22 21 21 20 19 19 18 18 17 17 17 16 16 16 16 16 16 17 17 17 17 17 18 18 18 18 18 19 19 20 20 20 20 21 21 21 21 21 22 22 21 21 22 22 22 22 22 22 22
26 27 27 27 27 27 26 25 25 25 25 24 24 24 24 24 23 23 22 21 21 20 19 19 19 19 19 18 18 18 18 18 19 19 19 19 20 20 20 20 20 20 20 21 21 21 22 22 22 23 23 23 23 23 23 23 22 22 23 23 23 23 23
26 26 26 27 27 27 28 27 26 25 26 26 26 26 26 26 25 25 24 24 23 22 21 21 21 21 21 20 20 20 20 20 20 21 21 21 21 22 21 21 21 21 22 22 22 23 23 23 24 24 24 24 24 24 23 23 24 24 24 24 24 24 24
26 26 26 26 26 27 28 28 28 27 27 27 27 27 28 28 27 27 26 26 25 24 23 22 22 22 22 22 22 22 22 22 22 22 23 23 23 23 23 23 23 23 23 23 23 24 24 25 25 25 25 26 26 25 25 25 25 25 26 26 26 26 25
25 25 25 25 26 27 27 28 29 29 29 29 29 29 30 30 30 29 28 28 27 26 25 24 24 24 24 24 24 24 24 24 25 25 25 25 25 25 25 25 25 25 25 25 25 25 25 26 26 26 27 27 27 27 27 27 27 27 27 28 28 28 27
23 24 25 26 26 27 28 28 28 29 29 31 31 31 31 32 31 31 30 29 29 28 27 27 27 26 26 26 26 26 26 26 27 27 27 27 27 27 27 27 27 27 27 27 27 27 27 27 27 28 28 28 29 29 29 29 29 29 29 29 29 29 28
24 25 26 26 27 27 28 28 29 29 30 31 32 33 33 33 32 32 31 30 30 29 29 29 29 28 28 28 28 27 27 28 28 28 28 28 28 28 28 28 28 28 28 29 29 29 29 29 29 29 30 30 30 31 31 30 30 30 30 30 30 29 29
26 26 27 27 28 29 29 29 30 30 30 31 32 33 33 33 33 33 32 32 31 31 31 30 30 29 29 29 28 28 28 28 28 28 29 29 29 29 30 30 29 29 30 31 31 31 31 31 31 31 31 32 32 32 32 32 32 32 32 31 31 31 31
29 29 29 29 30 30 31 31 31 31 31 31 32 32 33 34 35 35 35 34 33 32 32 31 30 30 29 29 29 29 29 29 29 29 29 29 29 30 30 31 31 31 31 31 32 32 33 33 33 33 33 33 34 34 34 34 33 33 33 33 33 32 32
32 32 33 33 33 33 32 32 32 32 32 32 32 33 34 35 36 37 36 36 34 33 33 32 31 31 30 30 30 30 30 30 30 30 29 30 30 30 30 31 32 32 32 32 32 33 33 33 33 34 34 34 35 35 36 36 35 35 35 35 35 34 34
34 34 34 35 35 35 34 34 34 34 34 34 34 34 35 35 36 36 36 35 35 34 33 33 32 31 31 31 31 31 31 30 30 30 30 30 31 32 32 31 32 32 32 32 33 33 33 33 34 34 35 35 35 36 36 37 37 37 37 37 37 37 36
35 35 36 36 36 36 36 36 35 35 35 35 35 35 35 35 35 35 34 35 35 34 34 34 33 33 32 32 32 32 31 30 30 30 31 31 32 33 32 32 32 33 34 33 33 33 33 34 34 35 35 35 36 36 37 38 38 38 38 39 39 40 39
36 36 37 37 37 38 38 37 37 37 36 36 36 35 35 35 35 35 34 34 34 34 34 34 34 33 33 33 33 32 31 31 31 31 32 32 33 32 32 32 33 34 35 35 34 34 34 35 35 36 36 37 37 37 38 38 38 38 39 39 40 41 40
36 37 37 37 38 38 38 38 38 37 37 37 36 36 35 35 36 35 34 33 33 33 33 34 33 33 33 33 33 32 32 32 33 33 33 33 32 32 32 33 33 34 35 35 35 34 35 36 37 37 38 38 38 38 38 39 39 40 41 42 42 43 43
36 36 36 37 37 37 37 37 37 37 37 37 36 36 35 35 36 35 34 33 32 32 32 33 33 33 33 33 33 33 33 33 34 34 34 33 33 33 33 33 34 34 35 36 35 35 35 37 38 38 39 39 39 39 39 39 40 41 42 43 44 45 46
35 35 35 35 36 36 36 36 36 36 36 36 36 35 34 35 35 35 34 33 32 31 32 32 33 33 33 33 32 32 33 33 33 34 34 34 34 34 34 35 35 36 36 36 36 36 37 38 39 39 39 40 40 40 40 40 41 41 42 43 44 44 45
34 34 35 35 35 35 35 35 35 35 36 36 35 35 34 34 34 34 33 32 32 31 32 32 33 33 32 32 32 32 32 33 33 34 35 35 35 35 35 36 37 37 37 37 37 38 38 39 39 39 39 40 41 41 41 41 42 43 43 44 44 44 44
34 34 34 34 34 34 34 34 35 35 35 34 34 33 34 34 33 32 31 31 31 31 31 31 32 32 31 32 32 33 33 34 34 35 35 35 36 36 37 37 37 38 38 38 38 39 40 40 40 41 40 40 41 41 41 41 42 43 44 44 45 45 45
35 35 35 35 34 34 34 34 34 34 34 33 32 31 32 32 31 30 30 30 31 31 30 30 30 30 30 31 32 34 34 35 35 35 35 36 36 37 38 38 38 38 38 39 39 40 41 41 41 42 42 42 42 42 42 43 43 43 44 44 44 45 45
36 36 36 35 35 35 34 34 33 33 33 32 31 30 30 30 29 29 29 29 29 29 29 29 29 29 30 31 32 33 34 34 34 35 36 37 38 38 39 39 39 39 40 41 42 42 43 43 43 43 44 44 44 45 45 45 44 44 44 44 44 44 44
37 37 36 36 35 35 35 34 33 32 32 31 30 28 28 28 27 28 28 28 28 28 28 28 28 28 29 30 30 31 32 32 34 35 36 37 38 39 39 40 41 41 43 44 44 44 44 44 44 44 45 45 45 46 46 46 45 45 44 44 45 45 45
36 36 36 35 35 34 33 32 31 30 30 29 27 26 26 26 26 27 27 27 27 27 27 27 27 27 27 28 28 29 30 32 33 34 35 36 37 38 38 39 40 42 43 44 45 45 45 44 44 44 44 44 44 44 44 44 44 44 45 45 45 46 46
Wind_Direction
244 242 240 241 242 243 245 247 250 253 255 256 257 257 257 258 258 258 258 258 257 257 256 255 256 257 256 256 257 258 257 258 258 254 251 250 248 247 246 246 247 248 248 249 250 250 249 247 242 238 237 239 240 239 238 239 240 241 242 243 245 248 249
243 243 241 241 243 245 247 249 250 251 253 255 255 254 254 255 257 258 259 258 258 258 257 256 257 258 258 257 257 257 256 256 256 255 253 252 251 251 250 250 249 247 246 247 248 249 249 248 245 242 241 241 241 241 240 242 244 245 245 246 247 250 251
241 242 241 241 243 245 246 247 248 248 251 253 254 253 252 254 255 257 257 257 257 257 257 257 258 260 261 260 259 258 257 255 254 254 253 253 253 253 253 255 256 254 250 248 249 251 251 251 249 248 248 247 246 245 245 247 248 248 248 248 249 252 252
237 240 240 240 242 244 244 245 246 246 248 252 254 255 254 254 255 255 256 255 255 256 257 258 259 260 261 261 260 259 258 257 255 254 253 253 253 253 253 254 255 256 255 252 252 253 252 252 252 251 251 251 252 251 251 251 250 249 250 250 250 252 253
235 237 238 237 239 241 242 243 245 245 246 249 253 255 255 255 255 254 254 254 255 255 255 256 258 259 260 260 260 259 259 258 257 256 256 255 254 254 254 254 255 256 256 256 256 254 253 252 252 252 252 253 254 254 253 253 251 250 251 251 250 251 252
235 235 236 236 237 239 241 242 244 245 245 246 249 252 254 254 255 254 254 254 255 254 254 255 256 258 259 260 261 260 259 258 258 257 257 258 258 257 257 256 257 257 257 258 259 258 256 255 253 252 253 254 255 255 255 253 252 251 250 250 251 252 253
236 235 236 237 238 240 241 242 245 246 245 245 247 249 252 254 254 254 254 253 253 252 253 254 256 257 258 259 260 261 261 260 260 259 259 260 260 260 259 258 258 258 258 259 260 260 259 259 257 256 256 257 257 257 256 254 253 252 251 251 253 254 254
237 237 238 240 240 241 242 244 246 248 248 248 247 248 251 254 255 254 252 252 252 253 253 254 255 258 259 260 261 261 263 264 263 263 263 262 262 262 261 260 259 259 259 259 260 260 260 261 260 260 260 260 260 260 259 257 256 255 254 254 255 254 254
239 240 241 242 242 242 243 246 248 249 250 249 248 249 252 253 254 255 254 253 253 254 255 256 256 258 260 261 263 264 265 266 267 267 266 265 264 264 263 262 261 260 260 260 261 261 261 261 261 262 261 260 261 261 260 260 260 258 258 258 257 256 255
241 243 244 244 243 243 244 246 248 250 251 251 250 252 253 253 253 255 256 256 255 256 257 258 259 259 260 261 262 264 266 267 269 270 270 269 267 267 267 265 263 262 262 262 261 262 262 261 261 261 260 259 259 260 261 261 259 259 260 261 261 260 259
244 246 247 246 245 245 246 247 249 250 252 252 252 254 254 254 254 255 256 257 258 259 259 260 261 261 262 263 262 263 264 266 267 268 270 271 271 270 270 269 268 266 265 265 263 262 262 262 261 261 261 260 259 259 261 262 261 260 261 261 261 262 262
244 246 248 248 247 247 248 249 249 250 251 251 252 253 253 254 254 254 256 257 258 260 261 262 263 265 266 267 267 267 267 266 266 266 267 269 270 271 271 271 271 270 270 269 266 265 264 263 262 261 261 260 260 260 261 262 262 262 262 263 263 264 264
245 246 248 249 249 249 249 250 251 252 253 253 252 252 253 253 253 254 255 255 257 259 261 263 264 266 268 269 270 270 270 269 269 268 268 268 269 270 271 271 271 271 271 269 266 266 265 264 264 263 262 261 261 262 262 262 262 263 263 265 265 265 266
247 248 250 251 252 252 252 253 254 255 256 255 254 252 253 253 253 254 254 255 257 258 260 262 265 266 268 269 271 272 272 271 271 270 270 269 269 270 271 271 271 272 272 270 267 265 263 263 264 263 262 263 262 263 263 263 263 264 265 265 265 266 267
247 249 251 253 254 255 255 256 256 257 257 257 256 255 254 255 255 256 256 256 258 260 261 262 265 267 268 269 272 273 273 272 271 271 271 271 271 272 272 272 272 272 272 271 270 268 265 265 264 263 263 264 264 265 265 266 266 266 267 267 267 267 268
250 251 251 253 254 255 256 257 257 257 257 258 258 257 256 256 256 257 257 258 259 260 261 263 265 268 268 269 272 274 275 274 273 273 272 272 273 273 273 273 272 272 271 271 271 270 268 268 268 267 266 266 266 266 267 268 268 268 269 269 270 270 269
254 254 254 255 255 255 256 257 258 258 258 258 258 259 257 256 256 256 257 257 258 260 261 263 265 267 269 270 272 273 274 274 274 274 274 275 275 275 275 274 273 272 271 271 271 270 268 268 269 269 268 268 267 266 267 267 268 268 268 269 271 271 271
256 256 256 257 257 257 257 257 257 258 258 258 258 257 257 256 255 254 254 255 256 258 261 263 264 266 269 271 272 273 274 274 274 275 275 276 276 276 276 275 275 274 273 272 271 270 269 269 269 269 268 268 267 266 265 265 266 266 267 268 269 271 271
256 256 257 257 257 258 259 258 258 258 258 258 257 256 256 255 254 253 254 254 255 258 260 263 264 266 269 271 272 273 274 274 274 274 275 276 276 277 277 276 275 275 274 274 272 271 270 270 269 269 268 267 266 266 265 265 266 266 266 267 268 269 270
256 256 257 258 259 260 261 261 261 261 259 257 257 257 257 256 255 254 254 255 256 258 260 261 264 266 268 270 271 271 272 274 274 274 274 275 275 276 276 276 276 275 274 274 273 273 272 271 269 268 267 266 266 265 265 265 266 266 267 268 268 269 269
257 258 259 259 260 261 262 262 262 263 262 260 259 259 258 257 256 254 254 255 256 258 259 261 263 265 267 269 271 272 272 273 275 274 274 273 274 275 275 275 275 275 274 274 274 273 272 272 270 269 268 267 266 265 265 265 265 266 266 267 268 269 269
259 260 261 261 261 261 261 261 262 262 263 263 261 260 259 257 255 254 254 255 256 257 260 262 263 265 266 268 270 273 274 274 275 275 274 273 274 275 275 274 274 275 274 274 273 272 272 271 271 270 269 268 267 266 265 265 265 266 266 267 267 268 269
260 260 262 263 264 263 263 262 263 263 263 263 263 261 258 256 255 254 254 255 255 257 260 263 263 264 267 268 270 272 274 274 275 275 275 274 274 275 275 274 274 274 275 274 272 272 272 271 270 270 270 269 268 267 266 265 266 266 267 267 268 268 269
261 262 263 264 265 265 264 264 264 264 263 262 261 259 258 257 256 255 255 256 256 257 259 261 262 264 266 268 270 272 273 274 274 275 275 275 275 275 275 274 273 274 275 274 273 272 271 271 271 270 270 269 268 267 266 267 267 267 268 268 269 269 270
264 264 265 265 265 265 265 264 264 264 263 262 260 259 259 259 257 255 255 256 257 258 258 260 262 264 265 268 270 272 273 273 274 274 275 275 275 276 276 274 272 274 276 276 275 274 273 271 271 271 271 270 269 267 267 267 267 268 269 269 270 270 271
265 265 265 265 265 265 265 264 264 264 264 263 261 260 260 259 258 256 254 254 255 257 258 259 261 263 265 268 271 272 273 273 274 274 275 275 275 276 277 276 273 273 275 275 275 275 274 273 273 272 272 271 270 268 267 267 268 268 269 270 270 270 271
265 265 265 265 265 265 265 264 264 264 264 264 263 261 260 259 258 256 254 253 254 256 257 258 260 262 264 268 271 272 273 273 274 275 275 275 276 276 277 276 274 273 274 275 275 274 274 275 275 274 273 272 271 270 269 268 269 269 269 270 270 271 271
267 266 266 266 266 265 265 265 264 264 263 263 262 261 260 259 258 257 255 254 254 256 256 257 259 262 264 267 269 271 272 272 274 276 276 276 277 277 276 275 275 274 274 274 275 274 275 276 276 275 274 273 272 271 270 269 269 269 270 270 270 271 271
268 268 267 266 266 266 265 265 264 263 262 261 260 259 259 258 256 255 254 253 254 256 256 257 259 262 265 267 268 270 271 272 273 274 275 277 277 276 275 274 275 276 275 275 275 274 275 276 276 276 275 274 273 272 270 270 269 270 270 270 270 271 270
269 268 268 267 266 265 265 264 263 262 261 260 258 257 257 256 254 253 253 253 254 256 256 257 260 263 265 266 268 270 272 272 272 273 275 276 277 276 274 274 275 277 276 276 275 276 276 276 276 276 276 275 274 273 271 271 270 270 270 270 271 271 271
269 269 269 268 266 266 265 264 262 261 260 259 258 256 255 253 252 251 251 251 253 255 257 258 260 263 264 265 268 271 273 273 273 274 275 276 276 276 274 273 274 275 276 276 276 277 278 278 277 277 276 276 275 273 272 272 271 271 271 271 271 272 272
270 269 269 269 267 266 265 264 262 260 259 258 257 255 253 251 249 248 249 250 252 255 257 259 260 262 263 265 268 272 274 274 275 276 277 276 276 275 274 274 274 274 274 275 276 277 278 278 278 278 277 276 275 274 273 272 272 272 272 272 272 272 272
270 269 269 269 268 266 265 264 262 259 258 257 255 253 252 249 247 246 248 250 252 255 257 259 260 260 262 266 269 272 274 275 276 277 277 277 276 276 276 276 275 275 274 275 276 277 277 277 277 278 277 276 274 274 274 273 273 273 272 272 273 273 273
271 270 269 268 267 266 265 264 262 260 257 255 253 252 251 248 245 245 247 249 252 254 257 259 259 260 264 267 270 272 274 275 276 276 277 278 278 278 277 277 276 276 275 276 276 276 276 276 277 276 276 274 274 274 275 274 274 274 273 273 273 273 272
270 270 268 267 267 266 265 264 262 259 256 254 252 251 249 245 243 245 247 249 251 252 256 259 261 263 266 269 270 272 274 275 276 277 278 278 278 278 277 277 277 277 277 277 277 277 277 277 276 275 274 274 274 275 275 275 274 274 274 273 273 273 272
269 269 267 266 265 265 264 263 260 257 254 252 250 248 244 242 243 245 245 247 249 252 256 260 263 266 268 269 270 271 273 275 277 279 279 280 280 280 279 278 278 279 279 279 279 278 278 277 277 276 275 275 274 275 275 275 274 274 273 273 272 272 272
268 267 265 264 264 263 261 259 257 253 250 247 245 243 241 240 242 243 243 245 248 252 256 259 263 266 267 268 270 272 274 277 280 281 282 283 283 283 282 281 281 282 282 281 280 280 279 278 277 277 277 276 276 275 275 274 273 273 272 272 272 272 272